Simultaneous Nadir Overpasses (SNOs) Predictions

Prediction of SNOs between FY3D and NOAA-19 Satellite Orbit:

Table of predicted SNOs for the next 14.0 days since TLE Epoch: 9/14/2024
Index Date (FY3D) Time (FY3D) Lat,Lon (FY3D) SZA (FY3D ) Date (NOAA-19) Time (NOAA-19) Lat,Lon (NOAA-19) SZA (NOAA-19 ) Distance(km) Time Diff (sec)
1 09/20/2024 10:49:41 -76.00,-161.30 104.87 09/20/2024 10:48:31 -75.99,-161.36 104.88 1.80 70
2 09/20/2024 11:40:27 76.01, 5.96 75.16 09/20/2024 11:39:23 76.02, 6.02 75.17 1.91 64
3 09/20/2024 12:31:12 -76.03, 173.22 104.82 09/20/2024 12:30:28 -76.02, 173.23 104.83 1.09 44
4 09/20/2024 13:21:58 76.04, -19.52 75.21 09/20/2024 13:21:20 76.04, -19.39 75.22 3.52 38
5 09/20/2024 14:12:43 -76.05, 147.75 104.76 09/20/2024 14:12:25 -76.04, 147.83 104.78 2.68 18
6 09/20/2024 15:03:28 76.02, -44.83 75.23 09/20/2024 15:03:18 76.02, -44.95 75.22 3.22 10
7 09/20/2024 15:54:13 -76.04, 122.43 104.75 09/20/2024 15:54:22 -76.06, 122.42 104.73 2.71 9
8 09/20/2024 16:44:59 76.05, -70.31 75.28 09/20/2024 16:45:15 76.05, -70.36 75.27 1.52 16
9 09/20/2024 17:35:44 -76.07, 96.96 104.70 09/20/2024 17:36:19 -76.09, 97.02 104.68 2.64 35
10 09/20/2024 18:26:30 76.08, -95.79 75.34 09/20/2024 18:27:12 76.07, -95.76 75.33 1.65 42
11 09/20/2024 19:17:15 -76.10, 71.48 104.64 09/20/2024 19:18:17 -76.06, 71.45 104.67 3.57 62
12 09/20/2024 20:08:00 76.07,-121.11 75.35 09/20/2024 20:09:09 76.09,-121.17 75.38 3.31 69



Historial Predications of SNOs between FY3D and NOAA-19
